Вернуться в каталог

COSMOS 2351

АктивенВоенныеHEO
NORAD 25327·PAYLOAD·🇷🇺 Russia

Запущен May 7, 1998 с Plesetsk Cosmodrome

Loading…

Ближайшие Пролёты (ближайшие 24 часа)

TLE

СвежийSource: Space-Track

Эпоха: Sep 13, 2026, 00:00 UTC

1 25327U 98027A   26256.00017484  .00000865  00000-0  00000-0 0  9999
2 25327  63.8545 108.8846 6995340 180.0719 179.8041  2.00658571207721

Отслеживайте COSMOS 2351 в реальном времени с AllMySat

Download on the App Store